Regional Weather Roundup
Issued by NWS

Home | Current Version | Previous Version | Text Only | Print | Product List | Glossary On
Versions: 1 2 3 4 5 6 7 8 9 10 11 12 13 14 15 16 17 18 19 20 21 22 23 24 25 26 27 28 29 30 31 32 33 34 35 36 37 38 39 40 41 42 43 44 45 46 47 48 49 50
000
ASUS46 KLOX 041413
RWRCA

SOUTHERN CALIFORNIA WEATHER ROUNDUP
NATIONAL WEATHER SERVICE OXNARD CALIFORNIA
700 AM PDT SAT JUL 04 2015

NOTE: "FAIR" INDICATES FEW OR NO CLOUDS BELOW 12,000 FEET WITH NO
SIGNIFICANT WEATHER AND/OR OBSTRUCTIONS TO VISIBILITY.

  -  STATIONS PRECEEDED BY AN ASTERISK (*) ARE NOT NWS OR FAA
     STATIONS AND ARE NOT SUBJECT TO NWS AND FAA QUALITY CONTROL.

CAZ041-042-087-041500-
LA AND ORANGE COUNTY COASTAL AREAS


CITY           SKY/WX    TMP DP  RH WIND       PRES   REMARKS
L.A. DOWNTOWN  CLOUDY    65  59  81 CALM      29.88S
L.A. AIRPORT   CLOUDY    63  60  90 CALM      29.89S
LONG BEACH     CLOUDY    66  60  81 CALM      29.88S

CITY           SKY/WX    TMP DP  RH WIND       PRES   REMARKS
AVALON           N/A     61 N/A N/A S2          N/A
FULLERTON      CLOUDY    66  60  81 VRB3      29.87S
*GETTY CENTER    N/A     57  57 100 S3          N/A
HAWTHORNE      CLOUDY    66  59  78 VRB3      29.89R
*LOS ALAMITOS  CLOUDY    65  61  88 SW2       29.88S
*REDONDO BEACH   N/A     64  60  86 CALM      29.89S
SANTA ANA      CLOUDY    65  60  84 SW3       29.88S
STA MONICA APT CLOUDY    59  59 100 CALM      29.89S
TORRANCE       CLOUDY    66  61  82 CALM      29.88
*UCLA            N/A     64  57  77 S3        29.86S

$$

CAZ547-548-048-041500-
LA COUNTY VALLEYS AND INLAND EMPIRE


CITY           SKY/WX    TMP DP  RH WIND       PRES   REMARKS
BURBANK        SUNNY     64  58  80 CALM      29.88S
VAN NUYS       SUNNY     63  58  83 SE3       29.88S

CITY           SKY/WX    TMP DP  RH WIND       PRES   REMARKS
CORONA AIRPORT CLOUDY    63  60  90 CALM      29.89S
*CHATSWORTH      N/A     65  59  80 CALM      29.86S
CHINO          MOSUNNY   64  61  90 SW3       29.90R
MARCH AFB      SUNNY     65  52  63 CALM      29.90R
*NORTHRIDGE      N/A     64  57  77 SE1         N/A
ONTARIO        MOSUNNY   64  58  80 SW3       29.89R
*PASADENA        N/A     64  61  88 VRB1        N/A
POMONA         SUNNY     61  57  88 VRB6      29.92
RIVERSIDE      SUNNY     65  59  81 CALM      29.89S
SAN BERNARDINO NOT AVBL
*WHITEMAN AP   NOT AVBL
*WOODLAND HILL   N/A     64  57  77 NE2         N/A

$$

CAZ054-055-041500-
LA AND SAN BERNARDINO COUNTY MOUNTAINS


CITY           SKY/WX    TMP DP  RH WIND       PRES   REMARKS
*BIG BEAR AIRP SUNNY     52  37  58 CALM      30.21S
SANDBERG       SUNNY     72  48  42 W6        30.04R

$$

CAZ028-029-059-060-099-041500-
ANTELOPE VALLEY AND SURROUNDING AREAS


CITY           SKY/WX    TMP DP  RH WIND       PRES   REMARKS
LANCASTER      SUNNY     74  50  42 W5        29.89S
PALMDALE       SUNNY     76  48  37 S7        29.90F

CITY           SKY/WX    TMP DP  RH WIND       PRES   REMARKS
29 PALMS       MOSUNNY   86  43  22 NW7       29.91R
BARSTOW/DAGGET MOSUNNY   80  45  28 W10       29.86R
BISHOP         CLOUDY    69  48  47 N9        30.03R
CHINA LAKE     MOSUNNY   83  47  28 SE8       29.85R
EDWARDS AFB    MOSUNNY   74  47  38 SW8       29.87R
MOJAVE         FAIR      81  50  34 CALM      29.91R
NEEDLES        CLOUDY    94  50  22 SW6       29.76R HX  91
VICTORVILLE    SUNNY     73  45  35 CALM      29.93S

$$

CAZ039-040-041500-
VENTURA AND SANTA BARBARA COUNTY COAST


CITY           SKY/WX    TMP DP  RH WIND       PRES   REMARKS
CAMARILLO      CLOUDY    62  57  83 SW5       29.88S
OXNARD AIRPORT CLOUDY   N/A N/A N/A VRB3      29.88S
*POINT MUGU    CLOUDY    64  58  80 S3        29.89S HAZE
SBA APT/GOLETA CLOUDY    63  59  87 CALM      29.87S
*SANTA BARBARA   N/A     62  57  83 CALM      29.95S
*VENTURA         N/A     62  58  88 CALM      29.50S

$$

CAZ044-045-041500-
VENTURA COUNTY VALLEYS


CITY           SKY/WX    TMP DP  RH WIND       PRES   REMARKS
*SIMI VALLEY     N/A     60  56  87 CALM      29.83F
*OJAI            N/A     58  56  92 CALM      29.83R
*FILLMORE        N/A     59  57  91 CALM      29.79R

$$

CAZ053-041500-
VENTURA COUNTY MOUNTAINS


CITY           SKY/WX    TMP DP  RH WIND       PRES   REMARKS

$$

CAZ034-035-036-041500-
CENTRAL COAST AND SANTA YNEZ VALLEY


CITY           SKY/WX    TMP DP  RH WIND       PRES   REMARKS
SAN LUIS OBISP CLOUDY    59  56  89 NW6       29.89R
SANTA MARIA    CLOUDY    59  58  96 CALM      29.90R FOG

CITY           SKY/WX    TMP DP  RH WIND       PRES   REMARKS
*CAL POLY SLO    N/A     57  57 100 CALM        N/A
*LOMPOC        CLOUDY    57  54  88 W5        29.91R
*PISMO BEACH     N/A     59  57  94 CALM      29.89S
*SANTA YNEZ    CLOUDY    57  55  94 CALM      29.90S FOG

$$

CAZ037-038-051-041500-
SAN LUIS OBISPO COUNTY INTERIOR AND CUYAMA VALLEY


CITY           SKY/WX    TMP DP  RH WIND       PRES   REMARKS
*CUYAMA          N/A     68  52  58 E2        29.77F
PASO ROBLES    SUNNY     60  55  83 NW3       29.89S

$$

CAZ032-033-061-041500-
SOUTHERN DESERTS


CITY           SKY/WX    TMP DP  RH WIND       PRES   REMARKS
BLYTHE         CLOUDY    86  62  44 CALM      29.71R
IMPERIAL       SUNNY     84  53  34 S3        29.69R
PALM SPRINGS   SUNNY     87  55  33 CALM      29.74R
THERMAL        SUNNY     88  55  32 N13       29.68R

$$

ELSEWHERE ACROSS THE WESTERN UNITED STATES AND MEXICO


CITY           SKY/WX    TMP DP  RH WIND       PRES   REMARKS
DENVER, CO     MOSUNNY   69  54  58 W9        30.03R
GRAND CANYON,  CLOUDY    63  56  78 SE6       30.22R
HONOLULU, HI   PTCLDY    77  70  78 N5        29.91S
KAHULUI, MAUI  CLEAR     70  64  83 NE3       29.91S
LAKE TAHOE, CA PTSUNNY   58  50  75 S3        30.17F
LAS VEGAS, NV  LGT RAIN  94  40  15 SW10      29.80R HX  90
MAMMOTH LAKES, FAIR      57  48  72 CALM      30.26R
MEXICO CITY, M CLOUDY    59  52  77 W7        30.33
PHOENIX, AZ    PTSUNNY   88  65  46 SE3       29.79R HX  90
PORTLAND, OR   MOSUNNY   62  54  74 NW5       29.90R
RENO, NV       PTSUNNY   70  53  54 W5        30.05S
SALT LAKE CITY PTSUNNY   82  51  34 S9        29.93R
SAN DIEGO, CA  CLOUDY    68  60  75 NW5       29.90R
SAN FRANCISCO, PTSUNNY   59  55  87 W8        29.88S
SAN JOSE, CA   PTSUNNY   63  57  81 SE6       29.87F
SEATTLE, WA    MOSUNNY   61  54  77 SW5       29.90S
TIJUANA, MEX   CLOUDY    66  59  77 CALM      29.91R

$$

STATION/POSITION TIME  TEMP    WIND        PRES    VSBY  WAVE
                       AIR SEA DIR/SP/G                  HT/PER
                 (UTC) (F)     (DEG/KT/KT) (MB)    (MI)  (FT/S)
POINT ARGUELLO B NOT AVBL
WEST SANTA BARBA 1350   58 59  320/ 14/ 16 1011.5R         3/15
POINT CONCEPTION NOT AVBL
EAST SANTA BARBA 1300   60 62  360/ 12/ 14 1012.1R
SANTA MONICA BAY 1350   62 68  310/  2/  6 1012.0R         3/ 6


USA.gov is the U.S. government's official web portal to all federal, state and local government web resources and services.